Location: Unspecified
(0.0000°N, 0.0000°E)
Time: 06:11:44
(UTC+00:00)

Explorer 7 - Pass Details

Date: 01 October 2020
Orbit: 484 x 678 km, 50.3° (Epoch: 28 October)

Event Time Altitude Azimuth Distance (km) Brightness Sun altitude
Rises 09:31:58 0° 306° (NW) 2,968 10.3 55.5°
Reaches altitude 10° 09:34:34 10° 295° (WNW) 2,034 9.5 56.1°
Maximum altitude 09:38:40 30° 234° (SW) 1,114 8.5 57.1°
Drops below altitude 10° 09:42:37 10° 172° (S) 1,940 9.9 58.1°
Sets 09:45:03 0° 161° (SSE) 2,806 10.6 58.7°
